Location: Canazei
(46.4667°N, 11.7667°E)
Time: 04:53:13
(UTC+00:00)

CZ-4C R/B - Pass Details

Date: 21 April 2021
Orbit: 612 x 1390 km, 63.4° (Epoch: 10 May)

Event Time Altitude Azimuth Distance (km) Brightness Sun altitude
Rises 02:51:16 0° 313° (NW) 3,945 5.5 -13.8°
Reaches altitude 10° 02:54:11 10° 303° (WNW) 3,095 4.9 -13.4°
Maximum altitude 03:00:28 29° 247° (WSW) 2,159 3.7 -12.4°
Drops below altitude 10° 03:07:22 10° 192° (SSW) 3,417 4.9 -11.4°
Sets 03:10:47 0° 182° (S) 4,421 5.6 -10.9°
